Starlink 5965

operational
NORAD ID: 56915 Int'l Des: 2023-083 Owner: SPXS Country: US Constellation: starlink
LEOCIRCULAR

About Starlink 5965

Description loading...

Live Position

Loading 3D Globe...

Upcoming Passes

Altitude History

Altitude vs Time

uPlot chart will show altitude changes over time

Two-Line Element Set

1 56915U 23083AR 26062.07977190 -.00000485 00000-0 -20809-4 0 9990
2 56915 43.0006 104.9003 0001370 276.4845 83.5841 15.02533146150820
Epoch: Mar 3, 2026 • Age: 21 hours

Current Status

Altitude 568.4 km
Velocity 7.58 km/s
Sub-Earth Point -34.84°S, 140.71°W
Launch Date Jun 12, 2023
Age 2.7 years
Type internet

Technical Details

Classification Payload
Mass 305.00 kg
Dry Mass 290.00 kg
Total Mass 305.00 kg
Length 0.20 m
Diameter 2.80 m
Span 9.00 m
Shape Box + pan
Manufacturer SPXS
Bus Type Starlink
Phase Status In Orbit
Owner/State SPXS/US

Large Constellations

Loading constellations...